Regional Weather Roundup
Issued by NWS Burlington, VT

Current Version | Previous Version | Text Only | Print | Product List | Glossary On
Versions: 1 2 3 4 5 6 7 8 9 10 11 12 13 14 15 16 17 18 19 20 21 22 23 24 25 26 27 28 29 30 31 32 33 34 35 36 37 38 39 40 41 42 43 44 45 46 47 48 49 50
000
ASUS41 KBTV 271430
RWRBTV
VERMONT REGIONAL WEATHER ROUNDUP
NATIONAL WEATHER SERVICE BURLINGTON VT
1000 AM EDT FRI MAY 27 2016

NOTE: "FAIR" INDICATES FEW OR NO CLOUDS BELOW 12,000 FEET WITH NO
SIGNIFICANT WEATHER AND/OR OBSTRUCTIONS TO VISIBILITY.

* THESE REPORTS ARE NOT UNDER NWS QUALITY CONTROL AND/OR DO NOT
  REPORT WEATHER SUCH AS PRECIPITATION AND FOG.

VTZ001>019-271500-
_____VERMONT_____


CITY           SKY/WX    TMP DP  RH WIND       PRES   REMARKS
BURLINGTON     PTSUNNY   80  58  46 SW14      29.99S
MONTPELIER     FAIR      71  58  63 S15       30.10F
MORRISVILLE    FAIR      72  60  66 SE6       30.05F
ST. JOHNSBURY*   N/A     71  54  54 MISG      30.05F
LYNDONVILLE*   FAIR      70  56  62 E8        30.09F
RUTLAND*       FAIR      78  62  57 E12       30.05S
SPRINGFIELD    PTSUNNY   69  56  62 VRB3      30.09F
HIGHGATE*      FAIR      80  59  48 S7        29.98S
NEWPORT*       FAIR      72  60  67 SE12      30.05F
BENNINGTON     FAIR      79  65  62 N3        30.05S
MT. MANSFIELD*   N/A     66 N/A N/A NW17        N/A

_____LAKE CHAMPLAIN_____


CITY           SKY/WX    TMP DP  RH WIND       PRES   REMARKS
BURTON ISLAND*   N/A     66  57  72 S10         N/A
DIAMOND ISL*     N/A     70  59  68 W5          N/A

$$

NYZ007-026>031-035-052-083-087-271500-
_____NORTHERN NEW YORK_____


CITY           SKY/WX    TMP DP  RH WIND       PRES   REMARKS
PLATTSBURGH    PTSUNNY   74  61  63 SE9       29.98S
SARANAC LAKE   CLOUDY    76  58  53 SW8       30.03S
MASSENA        SUNNY     78  62  57 SW12      29.97F
OGDENSBURG*    SUNNY     79  66  65 SW13      29.96F
WATERTOWN      PTSUNNY   76  64  66 W8        30.00R
ALBANY         PTSUNNY   77  58  51 S9        30.03S
GLENS FALLS    MOSUNNY   78  59  51 S6        30.02F

$$
NHZ002-005-011-271500-
_____NEW HAMPSHIRE_____


CITY           SKY/WX    TMP DP  RH WIND       PRES   REMARKS
LEBANON        CLOUDY    70  57  63 MISG      30.09S
MT WASHINGTON  PTSUNNY   52  50  93 SW37        N/A
PLYMOUTH       FAIR      66  54  63 E8        30.12F
WHITEFIELD     CLOUDY    69  55  60 E6        30.09R

$$

_____REGIONAL QUEBEC LOCATIONS_____


CITY           SKY/WX    TMP DP  RH WIND       PRES   REMARKS
MONTREAL       CLOUDY    70  55  60 CALM      29.96F
QUEBEC CITY    LGT RAIN  55  52  88 NE10      30.00F
SHERBROOKE     MOSUNNY   73  61  64 S9        30.01F

_____REGIONAL ONTARIO LOCATIONS_____


CITY           SKY/WX    TMP DP  RH WIND       PRES   REMARKS
OTTAWA         PTSUNNY   77  64  65 SW8       29.94F

______KEY______
VSB  - VISIBILITY IN MILES
WCI  - WIND CHILL INDEX
HX   - HEAT INDEX
$$
NNNN



USA.gov is the U.S. government's official web portal to all federal, state and local government web resources and services.